Location: Oshawa
(43.9000°N, 78.8670°W)
Time: 00:11:40
(UTC-04:00)

Daily predictions for brighter satellites

Satellite Brightness Start Highest point End
(mag) Time Altitude Azimuth Time Altitude Azimuth Time Altitude Azimuth
Cosmos 2315 Rocket 4.1 00:13:51 66° NE 00:13:51 66° NE 00:19:21 10° NNE
NOSS 3-1 (C) 3.9 00:13:49 46° W 00:15:12 56° NW 00:21:43 10° NNE
NOSS 0 Rocket 4.2 00:15:35 61° W 00:15:58 62° WNW 00:22:06 10° NNE
ALOS 2 4.3 00:23:08 30° NNE 00:23:08 30° NNE 00:25:34 10° N
Cosmos 2333 Rocket 3.0 00:21:21 45° WNW 00:21:54 47° WNW 00:27:29 10° NNE
Cosmos 2237 Rocket 2.7 00:26:24 57° NW 00:26:24 57° NW 00:31:44 10° NNE
ATLAS CENTAUR R/B 4.2 00:31:51 11° NE 00:31:51 11° NE 00:32:04 10° NE
Cosmos 2278 Rocket 3.2 00:23:41 10° NW 00:27:48 37° WNW 00:27:48 37° WNW
NOSS 3-1 (A) 3.8 00:29:37 57° WNW 00:30:11 59° NW 00:36:44 10° NNE
ATLAS 2AS CENTAUR R/B 3.6 00:32:49 43° E 00:32:49 43° E 00:39:09 10° NE
CZ-2C R/B 3.4 00:36:16 10° NNE 00:40:15 48° NE 00:40:15 48° NE
Cosmos 2184 Rocket 4.3 00:39:27 10° N 00:45:12 61° NE 00:45:12 61° NE
Cosmos 2219 Rocket 4.2 00:53:26 18° W 00:55:41 23° NW 01:00:05 10° N
ATLAS 3B R/B 2.8 00:59:03 10° NNW 01:05:51 62° NE 01:06:04 62° ENE
Cosmos 2074 Rocket 4.3 01:12:25 10° NNW 01:17:40 61° NW 01:17:40 61° NW
USA 238 DEB 4.1 01:15:48 10° NNW 01:22:49 61° NE 01:23:52 55° E
USA 238 4.1 01:15:54 10° NNW 01:22:55 61° NE 01:24:00 55° E
Cosmos 2154 Rocket 4.2 01:18:33 10° N 01:24:12 64° NE 01:24:12 64° NE
Cosmos 2369 Rocket 3.0 01:21:18 10° NNW 01:26:15 46° NE 01:26:15 46° NE
Cosmos 1607 4.2 01:25:08 10° NW 01:30:26 64° NW 01:30:26 64° NW
USA 215 3.8 01:34:42 10° ENE 01:39:38 45° E 01:39:38 45° E
Cosmos 1943 Rocket 3.3 01:40:31 10° N 01:45:45 37° NE 01:46:25 35° ENE
SL-16 R/B 3.5 01:46:54 32° WNW 01:47:02 32° NW 01:52:08 10° N
Cosmos 1238 Rocket 4.3 01:51:04 49° N 01:51:04 49° N 01:55:19 10° N
ATLAS CENTAUR R/B 3.8 02:08:06 19° NNW 02:08:06 19° NNW 02:10:19 10° N
Cosmos 2181 Rocket 4.0 02:08:48 81° NE 02:08:48 81° NE 02:15:02 10° N
Cosmos 2218 Rocket 4.2 02:04:25 10° N 02:10:34 59° ENE 02:10:48 58° E
USA 267 4.0 02:08:05 10° E 02:14:19 50° NNE 02:20:35 10° NW
Cosmos 2366 rocket 4.3 02:08:14 10° N 02:14:27 56° ENE 02:14:57 54° E
Cosmos 44 Rocket 4.4 02:12:38 10° NNW 02:16:04 40° N 02:16:04 40° N
NOSS 3-4 (A) 4.2 02:22:20 41° ESE 02:22:20 41° ESE 02:27:57 10° NE
NOSS 3-4 (C) 4.2 02:22:26 41° ESE 02:22:26 41° ESE 02:28:03 10° NE
ATLAS 2AS CENTAUR R/B 3.6 02:20:13 40° W 02:22:35 51° NW 02:30:31 10° NNE
SL-8 Rocket 3.9 02:20:24 10° N 02:26:21 83° NNW 02:26:21 83° NNW
Helios 1A Rocket 4.5 02:30:19 10° NNE 02:32:40 34° NNE 02:32:40 34° NNE
NOSS 3-2 (A) 3.9 02:27:55 10° NW 02:35:25 84° NE 02:38:59 38° SE
Cosmos 773 Rocket 4.3 02:40:19 65° NE 02:40:19 65° NE 02:44:48 10° NNE
Cosmos 1943 3.5 02:43:07 58° NW 02:43:07 58° NW 02:48:27 10° NNE
Cosmos 2228 4.3 02:42:28 10° N 02:45:12 37° NNW 02:45:12 37° NNW
Aureole 1 Rocket 4.0 02:51:19 49° E 02:51:19 49° E 02:55:10 10° NNE
ATLAS 3B R/B 4.1 02:50:31 10° NW 02:53:17 21° WNW 02:53:17 21° WNW
Nadezhda 3 Rocket 4.4 03:01:16 46° SE 03:02:48 59° E 03:09:00 10° NNE
NPP 3.6 02:57:30 10° NNE 03:02:54 73° ESE 03:03:10 71° SE
Lacrosse 5 rocket 3.7 03:05:58 18° ESE 03:05:58 18° ESE 03:08:33 10° E
Resurs 1-4 Rocket 3.3 03:02:22 10° NNE 03:07:09 34° E 03:08:31 30° SE
Cosmos 1809 Rocket 4.4 03:03:19 10° NNW 03:09:20 60° W 03:09:24 60° W
Cosmos 2369 Rocket 3.9 03:05:50 10° NW 03:08:01 20° WNW 03:08:01 20° WNW
SL-08 R/B 3.4 03:12:21 69° NNW 03:12:21 69° NNW 03:16:36 10° NNW
CZ-2D R/B 3.0 03:12:25 10° NNE 03:17:27 41° E 03:18:56 34° SE
IRS-P3 Rocket 4.5 03:14:04 10° NNE 03:19:29 82° WNW 03:19:56 75° SW
Cosmos 1812 Rocket 3.7 03:16:00 10° N 03:19:57 70° N 03:19:57 70° N
Cosmos 1680 Rocket 3.3 03:23:12 77° SW 03:23:35 86° WNW 03:28:53 10° NNE
CBERS-1 3.8 03:18:39 10° NNE 03:23:47 81° WNW 03:24:07 76° SW
USA 215 3.7 03:17:46 10° NE 03:24:06 54° NNW 03:26:58 32° W
RESURS DK-1 2.8 03:25:43 58° ENE 03:25:43 58° ENE 03:29:23 10° NNE
COSMOS 2455 2.7 03:20:28 10° NNW 03:26:31 85° WSW 03:29:08 36° SSE
Cosmos 1842 3.8 03:28:16 55° ENE 03:28:16 55° ENE 03:31:45 10° NNE
Cosmos 1943 Rocket 3.2 03:24:21 10° NW 03:27:54 30° WNW 03:27:54 30° WNW
Cosmos 1766 3.9 03:25:28 10° N 03:28:34 52° NNW 03:28:34 52° NNW
ADEOS 4.1 03:24:34 10° NNE 03:29:41 53° E 03:31:11 40° SSE
Meteor 1-4 Rocket 3.6 03:29:13 10° NNW 03:31:49 41° NNW 03:31:49 41° NNW
Cosmos 192 4.3 03:35:33 64° SSE 03:36:12 76° ESE 03:41:09 10° NNE
IRS-1D 3.8 03:31:40 10° NNE 03:36:51 64° ESE 03:38:24 44° SSE
COSMOS 2406 3.2 03:35:40 53° S 03:37:03 77° ESE 03:42:49 10° NNE
Meteor 1-22 Rocket 4.1 03:34:07 10° NNW 03:39:32 57° W 03:39:55 55° WSW
Meteor 2-8 Rocket 4.4 03:41:08 45° S 03:43:11 89° WNW 03:49:22 10° N
SL-27 R/B 3.0 03:43:36 56° E 03:43:36 56° E 03:46:51 10° NNE
NOSS 3-2 (C) 4.1 03:38:03 10° NW 03:45:20 52° WSW 03:50:12 24° S
ARIANE 5 R/B 2.6 03:42:48 10° NNE 03:48:04 76° ESE 03:49:48 43° S
Cosmos 1821 Rocket 3.8 03:42:03 10° N 03:48:11 87° W 03:51:19 31° S
Cosmos 1626 Rocket 4.5 03:49:17 34° WNW 03:49:17 34° WNW 03:52:57 10° N
COBE Rocket 4.2 03:46:08 10° NNE 03:51:11 66° E 03:53:04 37° S
IRS-1C 4.2 03:46:28 10° N 03:51:44 60° WNW 03:52:56 48° WSW
Cosmos 1371 Rocket 3.9 03:48:32 10° NNW 03:53:56 78° WSW 03:56:34 31° S
SL-16 R/B 2.4 03:51:39 34° S 03:54:28 69° WSW 04:00:38 10° NNW
CENTAUR R/B 3.2 03:48:30 10° NW 03:56:23 80° NE 04:04:49 10° SE
ADEOS Rocket 3.0 03:50:43 10° NNE 03:56:44 88° ESE 04:00:01 32° SSW
USA 267 3.2 03:50:47 10° SE 03:57:14 62° SW 04:03:43 10° NW
Cosmos 2239 Rocket 4.4 03:52:27 10° NNW 03:58:36 72° W 04:01:34 32° S
Cosmos 1825 Rocket 3.4 03:58:07 58° SSW 03:58:59 85° W 04:03:25 10° N
Cosmos 1470 3.9 03:56:58 10° N 04:00:42 41° ENE 04:03:45 14° SE
Cosmos 1953 2.2 03:57:59 10° N 04:02:00 87° E 04:02:57 51° S
GEOS 3 Rocket 3.6 03:58:37 10° NE 04:03:56 83° NW 04:05:55 40° SW
Cosmos 1535 Rocket 4.4 03:59:48 10° NNW 04:06:00 67° W 04:09:16 29° SSW
Cosmos 1605 Rocket 4.1 04:02:32 10° N 04:08:47 75° E 04:14:55 10° SSE
Cosmos 1818 4.0 04:07:00 30° S 04:09:29 57° ESE 04:14:50 10° NE
Cosmos 1934 Rocket 3.9 04:03:59 10° N 04:10:16 76° W 04:14:55 19° S
Cosmos 1656 Rocket 4.2 04:06:53 10° NW 04:11:45 35° WSW 04:11:50 35° WSW
Okean O Rocket 4.1 04:09:13 10° NE 04:12:24 19° E 04:15:34 10° SE
NOSS 3-4 (A) 4.2 04:09:46 27° W 04:12:49 43° NW 04:19:04 10° NNE
NOSS 3-4 (C) 4.2 04:09:52 27° W 04:12:54 44° NW 04:19:12 10° NNE
NOSS 2-2 (D) 3.7 04:11:50 42° S 04:13:02 65° ESE 04:17:38 10° NE
ADEOS II 4.2 04:09:03 10° NE 04:13:09 23° E 04:17:12 10° SE
Cosmos 839 Rocket 4.3 04:07:52 10° NNW 04:14:11 80° ENE 04:21:33 10° SE
UNKNOWN OBJECT B 2.9 04:10:30 10° NNE 04:14:30 75° ESE 04:16:05 36° S
Cosmos 1758 3.5 04:14:29 10° NNW 04:18:29 52° W 04:19:10 46° SW
UNK 4.5 04:27:09 30° WSW 04:27:29 31° W 04:31:34 10° NNW
NOSS 2-2 (C) 3.4 04:29:42 35° SW 04:31:24 84° NW 04:36:09 10° NE
Tiangong 1 1.1 04:33:00 49° SSE 04:33:00 49° SSE 04:35:30 10° ESE
Abrixas 3.9 04:34:03 21° NW 04:35:17 30° N 04:37:51 10° ENE
Cosmos 1733 3.1 04:35:02 10° NNW 04:38:49 67° W 04:41:23 19° S
Cosmos 2098 Rocket 1.9 04:37:45 10° NNW 04:40:43 66° W 04:41:44 35° SSW
Cosmos 1697 Rocket 4.1 04:36:27 10° NNW 04:41:46 41° ENE 04:47:02 10° SE
Lacrosse 5 rocket 1.6 04:41:41 27° SW 04:44:13 78° NW 04:48:53 10° NE
Delta 2 Rocket 4.3 04:45:44 20° S 04:45:47 20° S 04:48:19 10° SE
MOS 1 Rocket 3.0 04:41:38 10° N 04:45:59 85° WNW 04:49:34 16° SSW
Cosmos 2278 3.8 04:40:25 10° NNW 04:46:11 85° ENE 04:51:54 10° SSE
Cosmos 389 Rocket 2.5 04:42:45 10° NNW 04:46:21 59° W 04:49:03 16° S
Resurs 1-4 Rocket 3.0 04:42:16 10° N 04:46:56 33° WNW 04:49:36 21° WSW
USA 161 1.9 04:48:14 34° SW 04:48:52 40° W 04:51:38 10° NNW
Cosmos 1271 Rocket 4.0 04:46:22 10° NW 04:49:17 21° W 04:49:21 21° W
Cosmos 1842 Rocket 4.0 04:45:15 10° N 04:49:38 63° E 04:54:01 10° SSE
Cosmos-2242 3.2 04:46:50 10° NNW 04:51:08 54° W 04:55:20 10° S
CZ-4B R/B 4.0 04:48:23 10° NNE 04:52:34 49° E 04:56:53 10° S
Cosmos 1758 Rocket 4.4 04:51:05 23° WSW 04:52:56 32° WNW 04:56:50 10° N
Cosmos 2369 3.7 04:47:54 10° NNW 04:53:41 86° WSW 04:59:25 10° SSE
CZ-2D R/B 3.2 04:52:53 10° N 04:57:19 28° WNW 05:00:15 17° WSW
Meteor 2-5 Rocket 3.8 04:53:09 10° S 04:58:51 86° W 05:04:43 10° N
MOS 1-B 4.3 04:53:32 10° NNE 04:59:22 80° WNW 05:05:09 10° SSW
Cosmos 921 Rocket 4.1 04:56:06 10° NW 04:59:52 26° W 05:02:20 17° SW
Cosmos 2056 Rocket 4.5 04:55:34 10° NW 04:59:58 27° W 05:03:28 14° SSW
RESURS DK-1 4.5 05:01:38 11° W 05:03:45 15° NW 05:06:14 10° N
Cosmos 2061 Rocket 4.2 04:58:16 10° N 05:04:32 74° E 05:10:42 10° SSE
Cosmos 2221 3.9 05:06:30 10° N 05:10:36 41° ENE 05:14:38 10° SSE
COSMOS 2455 4.4 05:08:44 10° WNW 05:11:30 13° W 05:12:09 13° WSW
Cosmos 2082 Rocket 2.4 05:09:19 10° SSW 05:15:00 76° ESE 05:20:43 10° NNE
Cosmos 1980 Rocket 3.5 05:10:01 10° NNW 05:15:29 45° ENE 05:20:54 10° SE
DNEPR-1 R/B 3.9 05:11:59 10° NW 05:15:57 42° WSW 05:20:12 10° S
Cosmos 1727 Rocket 4.3 05:10:06 10° SSW 05:15:59 47° WNW 05:21:56 10° N
Cosmos 1833 Rocket 3.0 05:10:40 10° SSW 05:16:14 71° ESE 05:21:50 10° NNE
Meteor 2-1 Rocket 4.5 05:11:31 10° N 05:17:11 78° E 05:22:56 10° SSE
Cosmos 1656 3.5 05:13:45 10° NNW 05:19:11 77° WSW 05:24:36 10° SSE
CZ-4B R/B 3.3 05:16:27 10° NNE 05:21:52 77° ESE 05:27:09 10° S
Cosmos 158 Rocket 4.2 05:16:57 10° S 05:21:55 72° ESE 05:27:04 10° NNE
PAYLOAD B 4.3 05:16:22 10° NNE 05:22:00 85° ESE 05:27:32 10° SSW
Orbus 7S? 2.6 05:20:39 10° NW 05:23:48 53° SW 05:26:18 10° SSE
Cosmos 2016 Rocket 4.2 05:18:43 10° N 05:24:59 82° E 05:31:18 10° S
CZ-2C R/B 3.8 05:21:19 10° SSE 05:25:44 83° ENE 05:30:13 10° NNW
ARIANE 5 R/B 4.3 05:23:23 10° NNW 05:26:33 16° WNW 05:29:42 10° W
EXPRESS MD2 3.0 05:23:42 10° WNW 05:28:31 62° SW 05:31:12 10° SE
Cosmos 972 Rocket 4.5 05:23:48 10° NNW 05:30:24 88° WSW 05:36:13 10° SSE
Cosmos 1707 4.0 05:27:49 11° SW 05:30:52 24° WNW 05:34:06 10° NNW
Meteor 1-31 Rocket 4.3 05:28:31 10° NNE 05:32:12 38° E 05:35:52 10° SSE
Cosmos 1452 Rocket 4.2 05:30:30 10° NW 05:35:06 31° W 05:39:40 10° SSW
Okean 3 Rocket 3.7 05:33:56 10° S 05:38:19 80° E 05:42:45 10° N
ERS-2 4.2 05:36:06 10° NE 05:39:22 29° E 05:42:37 10° SSE
Cosmos 1802 Rocket 4.1 05:33:50 10° NNW 05:40:13 66° W 05:46:32 10° S
IRS-1C Rocket 4.2 05:38:34 10° N 05:43:48 67° WNW 05:49:01 10° SSW
Cosmos 1908 4.2 05:40:06 10° N 05:43:53 53° E 05:47:40 10° SSE
CENTAUR R/B 3.9 05:40:09 10° WNW 05:46:35 27° WSW 05:53:16 10° SSW
Cosmos 1459 Rocket 4.3 05:42:20 10° NNW 05:48:12 48° W 05:54:08 10° SSW
